Flag for Germany Weather past 2 weeks in Dinslaken, North Rhine-Westphalia, Germany

Now
39 °F

Clear.


Feels Like: 37 °F
Forecast: 40 / 59 °F
Wind: 3 mph from Southwest

Location: Essen

Current Time: Mar 7, 2015 at 1:16:29 AM

Latest Report: Mar 7, 2015 at 1:00 AM


Visibility: 10 mi

Pressure: 30.53 "Hg

Humidity: 80%

Dew point: 33 °F

Location of DinslakenLocation

Historic Weather in Dinslaken — Graph

°F

Dinslaken temperature yesterday

Maximum temperature yesterday: 46 °F (at 3:00 PM)
Minimum temperature yesterday: 37 °F (at 1:00 AM)
Average temperature yesterday: 41 °F

Past Weeks' High & Low Weather Summary

 TemperatureHumidityPressure
High50 °F (Mar 1, 2:00 PM)100% (Feb 22, 3:00 AM)30.66 "Hg (Feb 22, 3:00 AM)
Low31 °F (Feb 28, 5:00 AM)50% (Feb 28, 5:00 PM)29.35 "Hg (Feb 21, 4:00 AM)
Average39 °F84%29.93 "Hg
* Reported Midnight between Feb 19 and Feb 20 — Midnight between Mar 6 and Mar 7, Dinslaken, Weather by CustomWeather, © 2015

Note: Actual official high and low records may vary slightly from our data, if they occured in-between our weather recording intervals... More about our weather records

Advertising

Dinslaken weather history for previous 24 hours

 ConditionsComfort  
Time TempWeatherWind HumidityBarometerVisibility
12:00 AM
Sat, Mar 7
39 °FPassing clouds.2 mph81%30.55 "Hg11 mi
11:00 PM
Fri, Mar 6
40 °FPassing clouds.3 mph78%30.54 "Hg11 mi
10:00 PM40 °FClear.2 mph80%30.54 "Hg11 mi
9:00 PM41 °FClear.2 mph78%30.54 "Hg12 mi
8:00 PM44 °FPassing clouds.2 mph73%30.55 "Hg17 mi
7:00 PM44 °FOvercast.2 mph74%30.56 "Hg14 mi
6:00 PM45 °FOvercast.2 mph71%30.56 "Hg13 mi
5:00 PM45 °FOvercast.2 mph71%30.55 "Hg13 mi
4:00 PM45 °FOvercast.3 mph68%30.55 "Hg14 mi
3:00 PM46 °FOvercast.3 mph68%30.58 "Hg12 mi
2:00 PM45 °FOvercast.3 mph73%30.59 "Hg12 mi
1:00 PM44 °FOvercast.3 mph74%30.60 "Hg11 mi
12:00 PM42 °FOvercast.3 mph76%30.63 "Hg11 mi
11:00 AM41 °FOvercast.5 mph78%30.62 "Hg9 mi
10:00 AM40 °FOvercast.3 mph80%30.63 "Hg9 mi
9:00 AM39 °FOvercast.5 mph82%30.63 "Hg9 mi
8:00 AM38 °FOvercast.2 mph85%30.62 "Hg9 mi
7:00 AM38 °FOvercast.3 mph84%30.62 "Hg9 mi
6:00 AM38 °FOvercast.3 mph83%30.63 "Hg9 mi
5:00 AM38 °FOvercast.3 mph82%30.63 "Hg10 mi
4:00 AM38 °FOvercast.2 mph87%30.62 "Hg11 mi
3:00 AM38 °FOvercast.2 mph86%30.63 "Hg14 mi
2:00 AM39 °FOvercast.3 mph80%30.64 "Hg16 mi
1:00 AM37 °FOvercast.2 mph89%30.64 "Hg12 mi
Weather by CustomWeather, © 2015

See weather overviewHow to use our weather pages